Terminal Aerodrome Forecast
Issued by NWS

Home | Current Version | Previous Version | Graphics & Text | Print | Product List | Glossary On
Versions: 1 2 3 4 5 6 7 8 9 10 11 12 13 14
000
FTUS43 KICT 230704 AAA
TAFCNU
TAF AMD
KCNU 230704Z 2307/2406 VRB04KT P6SM VCTS SCT080CB
      TEMPO 2307/2309 VRB25G35KT 5SM +TSRA BKN080CB
     FM230900 01010KT P6SM BKN250
     FM231200 09005KT P6SM SCT250=

USA.gov is the U.S. government's official web portal to all federal, state and local government web resources and services.